Find Starlink 32513

NORAD ID: 61964 Int'l Des: 2024-210 Owner: SPXS Country: US Constellation: starlink operational
LEOCIRCULAR

Current View

Loading 3D Globe...

About Starlink 32513

Starlink 32513 (NORAD 61964) is a starlink constellation satellite (v2 mini) launched Nov 14, 2024 by SPXS of US. It operates in LEO, CIRCULAR orbit with a mass of 730.00 kg.

About Starlink 32513

Description loading...

Upcoming Passes

Passes for default location (London). Set your location on the main map for personalized predictions.

Altitude History

Loading altitude history...

Two-Line Element Set

1 61964U 24210F 26170.73288058 .00012598 00000-0 46635-3 0 9994
2 61964 43.0000 309.0503 0001391 268.2725 91.7968 15.27592950 90689
Epoch: Jun 19, 2026 • Age: 8 hours

Current Status

Altitude 486.8 km
Velocity 7.63 km/s
Sub-Earth Point 41.92°N, 117.32°E
Launch Date Nov 14, 2024
Age 1.5 years
Type internet

Technical Details

Classification Payload
Mass 730.00 kg
Dry Mass 700.00 kg
Total Mass 730.00 kg
Length 0.30 m
Diameter 4.10 m
Span 29.00 m
Shape Box + pan
Manufacturer SPXS
Bus Type Starlink V2M
Phase Status In Orbit
Owner/State SPXS/US

Most Searched